Temp_Advection
nan nan nan nan nan nan nan nan nan nan nan nan nan nan nan nan nan nan nan nan nan nan nan nan nan nan nan nan nan nan nan nan nan nan nan nan nan nan nan nan nan nan nan nan nan
nan 0 0 0 -0 -0 -0 -0 -0 -0 -0 -0 -0 0 0 0 -0 0 0 -0 0 0 -0 -0 -0 -0 -0 -0 -0 0 -0 -1 -1 -0 -0 -2 -2 -2 -0 -1 0 -0 -1 1 nan
nan 0 0 0 0 -0 -0 -0 -0 -0 -0 0 -0 -0 0 0 0 -0 0 -0 -0 -0 -0 -0 -0 -0 -0 -0 -0 0 -0 -1 -1 -1 -0 -1 -1 -1 -1 -0 -1 -0 -0 0 nan
nan 0 0 0 0 0 0 -0 -0 -0 -0 0 0 -0 -0 -0 0 0 0 -0 -0 -0 -0 -0 -0 -0 -0 -0 -0 0 -1 -0 -1 -1 -0 -0 -1 -1 -1 -1 -1 -0 -0 1 nan
nan 0 0 0 0 0 0 0 0 -0 -0 -0 0 -0 -1 -0 -0 0 0 -0 -0 -0 -0 -0 -0 -0 -0 -0 -0 -0 -0 -0 -0 -0 -0 -0 -0 -1 -1 -1 -1 -0 0 0 nan
nan -0 -0 0 0 0 0 0 0 0 -0 -0 -0 0 -0 -0 -0 0 0 0 -0 -0 -0 -0 -0 -0 -0 -0 -0 -0 -1 -1 -0 -0 -0 0 -0 -1 -1 -1 -1 -0 0 0 nan
nan -0 -0 -0 0 0 0 0 0 0 0 0 0 0 0 -0 -0 0 0 0 0 0 -0 -0 -0 -0 -0 -0 -0 -0 -0 -1 -1 -0 -0 0 0 -1 -2 -1 -1 -1 -0 0 nan
nan -0 -0 -0 -0 -0 0 0 0 0 0 0 0 -0 -0 -0 0 0 0 -0 0 0 0 -0 -0 -0 -0 -0 -0 -0 0 -0 -1 -0 0 1 -0 -1 -1 -0 -1 -1 -1 -0 nan
nan -0 -0 -0 -0 -0 0 0 0 0 0 0 0 -0 -0 -0 -0 0 0 0 -0 0 0 0 -0 -0 0 -0 -0 -0 -0 -1 -1 -0 -0 0 -0 -1 -1 -1 -1 -1 -0 0 nan
nan -0 -0 -0 -0 -0 0 0 0 -0 -0 -0 0 -0 -0 -0 0 0 0 0 0 -0 -0 0 -0 -0 0 -0 -0 -0 -0 -0 -1 -1 -0 -0 -1 -1 -1 -1 -1 -0 -0 0 nan
nan -0 -0 -0 -0 -0 -0 -0 -0 -0 -0 -0 0 -0 0 0 0 0 0 0 -0 -0 -0 0 0 -0 -1 -0 0 -0 -0 -0 -1 -0 0 -0 -1 -1 -1 -0 -0 -1 -0 -0 nan
nan 0 -0 -0 -0 -0 -0 -0 -0 0 -0 -1 0 0 0 0 -0 0 0 -0 0 -0 0 0 -0 -1 0 0 0 0 0 -0 -1 -1 0 0 -1 -1 -1 -1 -1 -0 -0 -1 nan
nan -0 -0 -0 -0 -0 -0 0 -0 -0 -0 -0 0 -0 0 -0 -0 0 0 -0 0 -0 0 0 -1 -0 0 0 0 0 -0 -0 -0 -0 -0 0 -0 -1 -2 -1 -1 -0 -0 -1 nan
nan -0 -0 -0 -0 -0 -0 -0 -0 -0 -0 -0 -0 -0 0 -0 -0 0 0 -0 -0 0 -0 -0 -0 -0 -0 -0 0 -0 -0 -0 -0 0 -0 -0 -0 -1 -1 -0 -0 0 -0 -0 nan
nan -0 -0 -0 0 0 0 -0 -0 0 0 -0 -0 0 -0 -0 0 0 0 0 -0 -0 0 -0 -0 -0 -0 -0 -0 0 -0 -0 -0 -0 -0 -0 -0 -1 -0 -0 -0 -0 -1 -0 nan
nan -0 -0 0 -0 0 0 0 -0 -0 -0 -0 -0 -0 0 -0 -0 0 -0 -0 -0 -0 0 -0 -0 0 -0 -0 -0 -0 0 0 -0 -0 -0 -1 -0 -0 -0 -0 0 0 1 -0 nan
nan -0 0 0 0 -0 -0 0 0 -0 -0 -0 0 -0 0 0 0 -0 0 0 -0 0 -0 -0 0 -0 -0 0 -0 -0 -0 -0 -0 -0 -0 0 0 -1 -1 -0 -0 -0 -1 -1 nan
nan -0 -0 0 0 0 -0 -0 -0 -0 -0 -0 0 0 -0 -0 0 0 0 -0 -1 0 0 -0 -0 -0 -0 0 -0 -0 -0 -0 -0 0 -0 -0 -0 -1 0 -0 -0 -0 -0 1 nan
nan -0 -1 -0 0 0 -0 -0 -0 -0 -0 -0 -0 0 0 0 0 -0 -0 -0 0 -0 0 0 -0 -0 -0 -0 -0 -0 -0 -0 0 0 0 -0 -1 -0 -0 -0 -0 -0 -0 0 nan
nan 0 -0 -0 0 0 -0 -0 -0 0 -0 0 -0 -0 0 -0 0 -0 0 -0 -0 0 -0 0 -0 -0 -0 0 -0 -0 0 0 0 -0 -0 -0 -0 -0 -0 -0 -0 -0 -0 0 nan
nan -0 -0 0 0 -0 -0 -1 -0 0 0 0 -0 -0 0 -0 0 -0 -0 -0 -0 -0 0 0 -0 -0 0 0 -0 -0 -0 -0 0 0 0 -0 -0 0 -0 -0 -0 0 0 -0 nan
nan -0 0 0 -0 -0 -0 -0 -0 -0 0 0 -0 -0 -0 -0 -0 -0 -0 -0 -0 -0 0 0 0 -0 -0 0 -0 0 0 0 0 -0 -0 0 -0 0 0 -0 0 -0 0 0 nan
nan -0 0 0 -0 -0 -1 0 -0 -0 0 -0 -0 -0 -0 0 -0 -0 -0 -0 0 0 0 -0 0 -0 -0 -0 -0 -0 -0 0 0 0 -0 -0 -0 0 -0 -0 -0 -0 0 0 nan
nan 0 -0 0 -1 -0 -0 -1 -0 0 -0 -0 -0 0 0 0 -0 -0 -0 0 -0 0 0 -0 0 -0 -0 -0 0 0 -0 0 0 -0 -0 -0 -0 0 -0 -0 0 -0 -0 -0 nan
nan -1 -0 -0 -0 -1 -1 -0 -1 0 -0 -0 0 -0 0 -0 -0 -0 -0 0 0 0 0 0 0 -0 -0 -0 0 0 -0 0 0 -0 -0 -0 0 -0 -0 -0 0 -0 -0 -0 nan
nan -0 -0 -0 -0 0 -0 -0 -0 -0 0 0 -0 -0 0 -0 -0 0 -0 0 0 -0 -0 0 0 -0 -0 -1 0 0 -0 -0 -0 -0 -0 -0 -1 -0 -0 -0 -0 -0 -0 -0 nan
nan nan nan nan nan nan nan nan nan nan nan nan nan nan nan nan nan nan nan nan nan nan nan nan nan nan nan nan nan nan nan nan nan nan nan nan nan nan nan nan nan nan nan nan nan
Wind_Speed
7 8 8 8 8 9 10 11 13 14 16 18 19 21 23 22 18 11 5 9 11 14 13 14 10 9 8 10 9 8 4 6 10 13 13 23 18 26 9 9 11 7 9 3 30
8 9 9 10 10 11 11 13 14 15 17 20 20 22 23 22 13 4 6 12 14 14 12 12 12 12 10 12 5 7 5 7 11 13 9 17 20 19 5 11 12 3 11 20 27
10 10 10 11 12 13 14 14 16 16 17 20 21 22 23 17 11 1 12 15 15 14 11 11 10 10 11 14 13 8 12 14 23 24 12 13 18 16 9 6 9 7 20 25 27
12 12 12 13 14 14 15 16 16 18 18 19 21 22 22 11 6 6 15 16 16 13 11 9 8 6 6 8 15 13 19 21 21 23 16 8 18 18 15 15 15 11 13 23 24
13 14 13 14 15 16 16 16 17 18 18 19 21 21 22 8 5 13 18 19 10 11 9 10 11 11 9 10 13 15 11 16 23 18 16 19 20 16 21 23 19 10 7 15 18
15 15 15 14 15 15 17 16 16 18 18 18 19 19 12 11 9 12 19 13 10 9 10 9 8 12 13 15 12 14 19 17 16 18 16 14 19 21 19 19 24 20 10 13 19
15 16 16 17 16 15 16 16 16 16 16 16 17 16 12 12 12 15 14 12 10 9 11 10 11 10 6 7 9 17 13 14 16 16 13 16 16 20 30 28 30 25 20 15 19
15 15 17 18 18 17 15 15 16 15 14 15 15 10 7 11 13 9 13 7 7 8 10 9 8 6 6 9 12 12 10 7 10 18 22 15 17 13 27 31 32 31 25 18 19
14 15 17 19 19 17 15 14 14 15 13 12 6 3 6 8 6 13 10 7 9 6 10 8 6 6 4 3 4 3 6 11 9 4 6 9 16 13 28 30 29 33 29 28 21
13 15 18 20 17 13 12 12 10 9 6 6 3 4 5 5 11 12 7 8 5 9 8 4 3 5 4 2 3 3 5 4 9 9 7 12 14 11 27 25 22 25 35 33 27
13 15 17 17 14 11 10 6 6 5 4 7 12 14 12 8 15 6 6 6 5 7 3 2 2 8 10 8 7 8 10 13 14 14 14 12 16 16 19 23 20 20 19 25 25
14 15 17 15 11 9 7 4 3 6 9 12 14 16 14 11 6 8 5 4 6 6 7 4 9 11 8 5 7 11 14 15 14 14 11 14 17 19 16 17 22 24 22 25 30
14 14 16 13 8 7 6 5 5 6 6 4 3 5 4 4 6 4 2 5 8 7 6 6 10 18 10 8 9 9 10 12 16 14 12 12 15 17 23 27 26 28 30 30 25
14 14 15 11 4 7 4 7 7 3 2 3 1 0 2 2 4 4 3 3 3 5 7 7 4 6 8 9 8 10 7 12 13 9 4 1 5 9 14 20 19 23 28 30 26
14 14 13 10 6 4 8 7 4 3 4 1 3 3 3 5 8 4 3 3 6 10 2 6 7 7 9 9 6 6 8 11 13 11 9 14 6 7 8 9 14 12 23 28 24
14 13 12 9 6 5 5 5 2 1 4 2 3 2 4 9 4 1 2 3 8 7 7 16 12 7 5 9 2 6 7 12 10 5 6 15 8 5 5 2 2 13 28 28 26
14 13 12 9 2 4 4 4 2 1 2 3 2 3 7 10 6 5 4 5 4 4 3 9 6 4 6 5 3 4 3 2 2 3 4 3 6 10 16 10 4 6 14 27 30
15 13 12 8 4 2 1 2 3 4 4 3 3 8 5 5 3 4 4 7 8 6 3 3 5 8 7 5 4 3 3 3 4 1 3 4 4 5 4 9 10 10 13 21 23
14 12 11 7 4 4 1 2 5 5 1 4 9 3 5 4 3 5 7 6 1 8 3 3 4 3 6 4 7 3 4 4 5 5 2 4 5 6 6 6 9 13 10 11 17
15 11 7 9 6 6 3 4 4 2 2 2 3 2 3 6 5 4 5 4 2 1 5 4 6 5 4 1 12 6 5 3 2 3 4 3 1 1 8 8 5 3 4 5 16
11 5 5 6 8 3 3 6 5 4 4 4 4 5 5 7 3 6 6 4 2 5 5 4 2 3 1 6 3 4 3 4 4 4 2 4 0 3 5 6 7 6 8 13 16
4 4 2 8 4 6 4 4 3 4 5 6 3 5 7 5 6 6 5 3 5 3 3 6 3 5 9 5 5 3 5 4 3 3 1 2 5 1 4 6 6 7 8 10 14
5 7 5 14 3 6 10 8 6 4 5 4 4 6 2 3 3 8 4 5 3 2 2 3 4 4 2 1 1 2 4 7 3 1 5 2 3 2 3 5 6 9 11 16 18
4 3 4 12 13 5 4 7 9 10 8 7 7 5 4 5 8 5 5 0 5 4 1 2 4 6 6 11 9 7 6 7 6 3 1 5 7 2 4 5 6 10 12 16 18
7 5 7 4 8 13 10 8 11 4 6 5 4 9 6 4 6 7 6 6 7 5 2 3 5 7 11 16 13 16 15 9 10 10 5 4 4 3 6 7 7 12 16 17 21
6 3 6 14 15 10 10 6 11 10 9 5 8 6 10 7 6 5 6 4 7 5 3 4 5 7 9 11 8 8 7 8 7 8 9 11 15 7 14 14 9 13 15 18 19
14 22 9 8 10 8 10 10 9 9 10 20 6 7 8 10 14 14 10 8 9 3 3 3 3 5 5 7 9 4 3 3 4 3 4 5 5 7 7 6 12 14 16 19 19
Wind_Direction
319 314 314 311 311 316 324 323 326 336 343 352 360 3 2 351 354 359 345 322 314 322 331 337 329 311 303 276 265 268 261 266 255 258 279 274 294 296 248 220 282 186 72 184 180
314 307 300 299 296 298 304 310 314 326 339 344 352 358 358 346 352 339 327 329 319 327 337 331 316 326 302 271 245 212 243 266 284 293 297 324 327 331 358 302 265 94 83 161 170
327 311 301 293 290 287 291 301 307 317 329 338 343 350 352 346 348 298 320 336 333 327 311 311 303 299 291 272 253 241 254 277 290 295 337 338 321 313 349 310 310 349 166 177 171
328 318 304 296 292 290 291 292 301 309 318 327 335 342 348 7 354 282 311 324 326 327 325 306 293 281 274 294 262 243 266 280 289 294 315 307 306 316 310 287 288 351 144 184 179
332 326 321 312 304 299 292 292 296 301 309 319 327 337 342 325 301 307 319 322 349 323 324 309 293 280 260 269 307 308 266 266 283 290 293 297 288 283 286 283 297 320 290 207 190
348 338 329 321 315 307 301 296 294 297 306 315 320 332 340 296 293 323 324 342 341 344 330 316 299 281 292 280 271 293 305 295 291 289 273 263 274 281 260 270 282 273 262 222 221
349 346 343 336 327 318 312 308 303 301 306 311 317 327 312 260 294 322 341 360 352 348 323 313 312 257 322 304 323 299 281 280 272 249 244 258 256 250 261 261 268 273 236 220 218
345 345 343 340 335 327 320 314 311 308 307 309 313 318 264 278 300 343 340 2 334 325 316 320 320 282 252 288 296 281 286 277 270 263 226 222 259 266 250 243 244 254 261 235 216
343 343 343 339 333 330 328 320 317 311 309 308 323 335 282 290 330 320 344 325 342 341 314 314 305 269 290 333 333 280 282 288 303 253 311 231 257 258 260 255 234 237 241 250 214
339 343 344 343 341 342 338 331 323 329 358 5 318 281 267 317 297 314 335 330 327 323 314 271 277 289 278 116 279 299 317 308 308 311 327 303 283 258 275 286 244 234 226 238 206
337 343 347 347 349 351 356 7 351 352 315 241 284 269 296 298 309 317 309 313 285 296 307 271 313 279 268 242 223 244 273 283 286 290 305 279 282 284 272 264 264 267 232 239 237
336 343 348 347 352 1 14 49 18 316 307 288 262 262 271 279 290 257 305 297 314 307 324 300 266 267 289 312 281 276 278 281 284 278 269 274 279 281 263 259 238 238 245 242 247
331 340 349 345 353 7 19 15 359 350 275 311 256 269 258 262 275 290 270 299 277 289 286 258 264 295 272 265 277 281 282 288 273 277 278 263 273 267 258 255 250 233 230 236 242
328 336 345 347 357 354 306 349 353 9 294 216 163 152 280 265 267 221 259 276 272 292 330 272 285 310 313 293 285 279 280 304 302 297 257 352 290 293 276 226 226 219 221 228 233
321 328 342 341 325 352 313 332 355 55 8 242 147 251 233 231 323 191 235 213 280 302 317 273 316 344 306 258 282 260 7 311 311 293 289 274 270 269 301 212 209 210 215 224 223
317 319 333 330 326 328 320 333 332 277 268 181 150 235 261 204 225 229 220 255 279 286 243 258 262 283 245 302 330 331 306 276 267 262 239 244 214 272 260 299 231 193 204 207 203
314 313 319 316 272 318 317 5 321 183 181 149 263 195 274 273 224 184 231 213 221 308 13 312 258 169 220 271 74 61 275 263 203 219 234 14 188 248 292 319 61 355 340 195 197
317 310 309 302 275 252 324 264 256 276 266 117 244 266 263 313 211 201 272 263 216 220 296 298 321 179 151 215 193 207 256 299 294 286 322 6 223 254 104 57 25 7 352 183 167
319 316 315 302 231 200 326 241 227 231 40 329 301 258 265 175 243 232 237 231 320 182 239 326 271 125 174 143 150 165 222 229 297 227 316 196 258 325 85 63 32 21 8 93 146
324 319 283 297 208 182 251 250 264 69 324 228 278 263 287 316 288 263 269 124 202 277 212 295 302 326 92 306 204 211 330 325 257 307 309 307 336 43 8 1 28 356 329 88 131
326 309 246 253 184 201 230 236 283 267 202 231 277 291 258 311 285 293 269 158 128 165 266 280 237 288 223 205 231 207 256 234 263 221 257 319 253 333 336 2 338 51 102 107 118
295 254 298 173 197 229 219 235 327 272 222 271 279 267 266 295 286 278 258 353 116 149 241 202 288 278 244 41 43 335 268 254 268 337 350 203 279 38 7 7 353 75 116 135 131
252 259 256 179 232 231 247 250 215 266 223 213 254 227 355 278 285 277 280 109 137 230 294 39 253 300 318 44 20 225 201 233 213 267 225 308 285 92 115 57 68 93 109 123 128
251 248 196 210 255 287 303 285 264 211 265 248 271 259 247 248 223 267 298 285 148 243 304 359 259 237 252 270 320 269 235 222 209 234 250 229 268 134 119 96 102 117 122 125 130
224 255 226 189 234 227 255 289 297 278 215 236 261 229 210 261 270 226 258 280 182 172 217 235 265 258 264 276 282 274 270 249 206 233 249 309 207 34 142 141 143 144 142 141 135
219 266 261 259 274 271 203 212 245 252 258 224 234 276 228 244 247 293 333 311 253 161 222 194 276 311 288 269 229 266 275 253 244 232 244 264 281 272 114 116 127 127 131 127 122
248 241 299 272 254 254 235 247 240 267 261 237 242 258 265 254 279 289 279 280 273 225 244 197 283 338 276 317 308 301 272 276 199 236 243 258 272 123 116 148 151 143 136 124 125
Height
1549 1548 1548 1547 1547 1546 1546 1545 1544 1542 1539 1535 1531 1527 1524 1520 1518 1518 1519 1519 1516 1513 1512 1511 1510 1510 1509 1508 1508 1508 1507 1498 1494 1492 1486 1478 1474 1470 1467 1468 1472 1475 1474 1477 1482
1548 1548 1547 1547 1546 1545 1544 1544 1543 1541 1538 1535 1531 1527 1524 1521 1518 1520 1519 1517 1515 1513 1512 1512 1510 1509 1508 1507 1506 1506 1504 1497 1491 1486 1484 1479 1479 1472 1469 1470 1473 1477 1479 1481 1483
1547 1547 1546 1545 1544 1543 1542 1542 1541 1539 1536 1534 1531 1527 1525 1521 1518 1519 1517 1515 1514 1512 1511 1511 1511 1510 1508 1505 1504 1502 1501 1497 1491 1489 1484 1484 1481 1476 1474 1475 1476 1478 1476 1478 1484
1547 1546 1545 1544 1543 1541 1540 1539 1538 1537 1534 1532 1530 1527 1525 1523 1524 1518 1517 1514 1513 1511 1510 1510 1510 1509 1508 1504 1500 1501 1498 1496 1493 1489 1488 1488 1485 1481 1479 1478 1478 1479 1480 1479 1482
1547 1545 1544 1543 1541 1540 1537 1536 1535 1534 1533 1531 1529 1527 1524 1525 1522 1518 1515 1511 1510 1510 1510 1510 1509 1507 1506 1503 1500 1496 1493 1493 1493 1490 1490 1489 1486 1487 1481 1479 1478 1480 1482 1481 1483
1546 1545 1543 1541 1540 1538 1536 1534 1533 1531 1530 1529 1528 1526 1526 1526 1520 1517 1513 1509 1509 1508 1509 1509 1508 1507 1504 1503 1502 1497 1495 1493 1490 1489 1489 1489 1486 1484 1481 1482 1477 1479 1480 1481 1479
1545 1544 1542 1540 1537 1535 1534 1532 1531 1529 1528 1527 1526 1524 1524 1523 1519 1517 1513 1509 1508 1508 1508 1508 1508 1507 1505 1502 1500 1498 1495 1491 1488 1486 1486 1488 1485 1480 1479 1479 1477 1476 1477 1479 1480
1545 1542 1540 1538 1535 1533 1531 1530 1529 1527 1525 1525 1524 1523 1520 1519 1518 1516 1512 1510 1510 1509 1508 1507 1507 1505 1505 1503 1500 1498 1495 1494 1481 1478 1478 1485 1481 1475 1474 1474 1472 1472 1473 1473 1475
1543 1541 1539 1536 1533 1530 1529 1527 1526 1524 1523 1522 1523 1522 1521 1518 1516 1515 1512 1511 1509 1509 1508 1508 1507 1505 1503 1504 1504 1496 1499 1491 1484 1478 1477 1479 1474 1471 1468 1467 1465 1467 1468 1469 1469
1542 1540 1537 1534 1531 1528 1526 1525 1523 1522 1521 1520 1522 1526 1519 1518 1516 1513 1512 1510 1509 1507 1506 1507 1506 1504 1503 1506 1505 1503 1503 1500 1500 1481 1481 1480 1473 1468 1464 1461 1458 1457 1461 1463 1464
1541 1539 1536 1532 1529 1527 1525 1524 1526 1523 1521 1521 1520 1519 1518 1516 1514 1512 1511 1510 1509 1508 1506 1504 1508 1507 1500 1496 1499 1502 1499 1495 1488 1483 1482 1478 1473 1465 1461 1457 1455 1453 1454 1456 1459
1540 1538 1535 1532 1529 1527 1525 1525 1526 1526 1520 1515 1515 1516 1515 1515 1515 1511 1511 1512 1509 1506 1504 1504 1504 1498 1494 1495 1496 1495 1494 1492 1486 1483 1479 1476 1468 1461 1454 1450 1450 1451 1451 1451 1452
1539 1537 1534 1531 1529 1528 1527 1526 1525 1524 1523 1515 1514 1514 1515 1515 1513 1511 1511 1510 1508 1505 1501 1503 1498 1494 1494 1493 1494 1494 1493 1488 1485 1481 1476 1474 1466 1457 1443 1444 1443 1443 1445 1445 1447
1538 1536 1534 1531 1532 1529 1529 1527 1525 1524 1524 1515 1514 1515 1514 1512 1512 1510 1509 1512 1507 1505 1503 1498 1492 1492 1492 1491 1491 1494 1487 1485 1483 1483 1486 1467 1465 1444 1432 1428 1432 1434 1438 1439 1442
1537 1535 1534 1531 1531 1530 1531 1528 1526 1526 1533 1513 1513 1513 1512 1513 1510 1508 1509 1510 1509 1505 1506 1499 1493 1493 1493 1491 1488 1488 1487 1491 1488 1486 1482 1471 1474 1444 1428 1425 1428 1431 1434 1437 1438
1535 1534 1533 1532 1530 1530 1529 1528 1528 1529 1528 1510 1510 1510 1511 1507 1507 1508 1509 1510 1507 1504 1499 1493 1491 1491 1489 1487 1488 1489 1490 1489 1489 1484 1477 1460 1466 1446 1436 1423 1420 1421 1425 1430 1435
1534 1532 1531 1530 1531 1529 1528 1529 1531 1531 1510 1508 1506 1505 1505 1503 1501 1505 1503 1504 1505 1504 1497 1492 1481 1485 1487 1487 1491 1496 1494 1478 1481 1480 1471 1446 1465 1447 1427 1425 1424 1425 1425 1425 1431
1532 1530 1529 1529 1529 1529 1528 1530 1532 1510 1505 1503 1504 1501 1503 1498 1497 1500 1502 1499 1489 1497 1504 1496 1496 1481 1479 1484 1492 1491 1490 1480 1463 1466 1465 1452 1459 1441 1427 1427 1426 1424 1424 1423 1429
1530 1528 1527 1527 1528 1529 1531 1530 1520 1512 1506 1505 1501 1498 1498 1497 1500 1497 1493 1492 1488 1492 1497 1499 1485 1476 1477 1479 1485 1486 1486 1473 1475 1463 1469 1452 1439 1429 1428 1429 1429 1429 1428 1428 1430
1528 1527 1527 1527 1527 1529 1530 1522 1510 1506 1508 1507 1506 1497 1498 1496 1497 1493 1487 1484 1487 1489 1489 1489 1495 1473 1474 1477 1476 1477 1472 1474 1474 1473 1461 1448 1439 1454 1441 1438 1434 1432 1433 1433 1434
1528 1527 1525 1525 1527 1529 1527 1518 1508 1506 1508 1509 1503 1500 1496 1495 1494 1494 1487 1485 1485 1489 1491 1488 1489 1481 1475 1474 1470 1476 1473 1470 1466 1464 1468 1462 1454 1445 1444 1439 1439 1436 1436 1437 1438
1528 1527 1523 1524 1528 1523 1518 1511 1510 1508 1508 1506 1504 1502 1500 1496 1495 1492 1486 1482 1485 1487 1489 1485 1486 1487 1471 1467 1465 1467 1468 1467 1471 1464 1469 1470 1464 1444 1444 1442 1440 1439 1440 1441 1443
1526 1523 1521 1523 1522 1517 1511 1509 1509 1508 1506 1504 1502 1498 1496 1497 1497 1489 1483 1484 1486 1488 1487 1486 1487 1491 1468 1470 1467 1469 1464 1465 1466 1472 1468 1467 1455 1442 1443 1444 1443 1444 1445 1445 1447
1525 1519 1520 1520 1517 1516 1513 1506 1503 1501 1503 1502 1498 1496 1496 1494 1492 1489 1485 1483 1484 1486 1487 1487 1483 1479 1478 1463 1463 1464 1460 1459 1461 1467 1456 1459 1448 1444 1444 1445 1446 1448 1449 1450 1451
1519 1514 1511 1514 1513 1512 1513 1507 1503 1500 1501 1500 1497 1494 1494 1493 1485 1483 1483 1483 1481 1484 1486 1487 1483 1476 1468 1460 1461 1457 1454 1456 1459 1456 1457 1445 1444 1442 1442 1446 1447 1449 1451 1452 1453
1514 1514 1510 1506 1506 1505 1505 1502 1500 1497 1498 1496 1497 1489 1491 1490 1485 1482 1480 1483 1481 1483 1484 1482 1484 1474 1467 1453 1453 1453 1448 1447 1449 1449 1451 1450 1446 1439 1441 1445 1448 1451 1452 1453 1455
1511 1511 1512 1504 1501 1499 1496 1495 1493 1492 1490 1488 1490 1491 1488 1484 1483 1480 1479 1477 1479 1480 1479 1479 1482 1480 1471 1451 1451 1451 1444 1444 1442 1441 1443 1447 1442 1439 1444 1447 1449 1452 1455 1456 1458